Regional Weather Roundup
Issued by NWS

Home | Current Version | Previous Version | Graphics & Text | Print | Product List | Glossary On
Versions: 1 2 3 4 5 6 7 8 9 10 11 12 13 14 15 16 17 18 19 20 21 22 23 24 25 26 27 28 29 30 31 32 33 34 35 36 37 38 39 40 41 42 43 44 45 46 47 48 49 50
821
ASUS44 KLIX 012110
RWRLA
LOUISIANA WEATHER ROUNDUP
NATIONAL WEATHER SERVICE NEW ORLEANS LA
400 PM CDT FRI AUG 01 2014

NOTE: "FAIR" INDICATES FEW OR NO CLOUDS BELOW 12,000 FEET WITH NO
      SIGNIFICANT WEATHER AND/OR OBSTRUCTIONS TO VISIBILITY.
      SKY/WX - SKY CONDITION AND SIGNIFICANT WEATHER.
      TMP - AIR TEMPERATURE.    DP   - DEWPOINT TEMPERATURE.
      RH  - RELATIVE HUMIDITY.  PRES - PRESSURE.
      HX  - HEAT INDEX.         WCI  - WIND CHILL INDEX.

*  THESE STATIONS ARE NOT NWS OR FAA STATIONS AND ARE NOT UNDER
   NWS QUALITY CONTROL.

LAZ040-048-061>063-065-066-069-012200-
SOUTHEAST LOUISIANA

CITY           SKY/WX    TMP DP  RH WIND       PRES   REMARKS
N.O. AUDUBON     N/A     90  67  47 MISG        N/A
N.O. INTL ARPT CLOUDY    85  67  54 S9        29.98F
N.O. LAKEFRONT CLOUDY    85  69  58 E7        29.99F
N.O. DOWNTOWN* MOCLDY    88  66  48 SE7       29.98F
SLIDELL        CLOUDY    83  71  67 NE7       29.98F
BATON ROUGE    CLOUDY    77  74  90 S12       29.98F
BOOTHVILLE     PTSUNNY   86  70  58 NE5       30.00S
BELLE CHASSE   CLOUDY    85  66  53 S7        29.98F
BOGALUSA*      FAIR      82  68  62 NE5       30.02S
GALLIANO*      NOT AVBL
NEW ROADS*     CLOUDY    79  76  90 SE8       29.97F
GONZALES*      LGT RAIN  78  77  96 W3        29.98F
HAMMOND*       LGT RAIN  82  70  65 SE3       30.00S
HOUMA*         CLOUDY    86  64  48 SE3       29.98F
PORT FOURCHON* CLEAR     86  68  54 S5        30.00F

$$

LAZ041-044-053-054-012200-
SOUTHWEST LOUISIANA

CITY           SKY/WX    TMP DP  RH WIND       PRES   REMARKS
LAKE CHARLES   PTSUNNY   86  76  71 SW5       29.92F HX  96
LAFAYETTE      PTSUNNY   86  74  67 S6        29.95F
PATTERSON      CLOUDY    79  73  83 CALM      30.01F
SALT POINT       N/A     85  76  74 S3        29.96F
NEW IBERIA     CLOUDY    86  75  69 S6        29.96F HX  95
CHENAULT AIRPK PTSUNNY   90  72  55 W7        29.93F HX  96

$$

LAZ027-028-012200-
CENTRAL LOUISIANA

CITY           SKY/WX    TMP DP  RH WIND       PRES   REMARKS
FORT POLK      MOSUNNY   84  72  67 W3        29.93F
ALEXANDRIA INT PTSUNNY   84  74  71 S3        29.91F
ALEXANDRIA     PTSUNNY   83  75  77 E5        29.93F

$$

LAZ001-002-012200-
NORTHWEST LOUISIANA

CITY           SKY/WX    TMP DP  RH WIND       PRES   REMARKS
SHREVEPORT     CLOUDY    71  68  90 N7        29.99F
BARKSDALE AFB  CLOUDY    70  67  91 N6        30.00S
DTN SHREVEPORT CLOUDY    71  67  87 NE6       30.00S

$$

LAZ014-016-012200-
NORTHEAST LOUISIANA

CITY           SKY/WX    TMP DP  RH WIND       PRES   REMARKS
MONROE         CLOUDY    71  69  93 NE8       29.99F FOG
TALLULAH       RAIN      74  71  91 S7        30.00S FOG

$$




USA.gov is the U.S. government's official web portal to all federal, state and local government web resources and services.